Погода в Умм-эль-Кайвайне

Объединённые Арабские Эмираты     25°33′11″N   55°33′03″E
темп.,
°C
ветер,
м/с
пор.,
м/с
влажн.,
%
обл.,
%
осадки,
мм/ч
давл.,
гПа
погр.,
м
7 мая, пт
пт701:00+27ссз237889 0.0 1008178
04:00+27св227535 0.0 100776
07:00+28в1170100 0.0 100841
10:00+30св12551 0.0 1010340
13:00+31сз6554100 0.0 1009434
16:00+30сз55640 0.0 1007313
19:00+28с45720 0.0 1009128
22:00+28св23700 0.0 100924
8 мая, сб
сб801:00+28в33610 0.0 100718
04:00+28ссз33590 0.0 100718
07:00+29св22600 0.0 100937
10:00+32всв12480 0.0 1009426
13:00+30ссз88560 0.0 1008292
16:00+30ссз68580 0.0 1006316
19:00+29с33640 0.0 100624
22:00+28зюз22630 0.0 100811
9 мая, вс
вс901:00+28зсз11590 0.0 100612
04:00+27з22630 0.0 100620
07:00+28ююз33580 0.0 100857
10:00+31юз56440 0.0 1008426
13:00+31з79480 0.0 1007415
16:00+30з810550 0.0 1006337
19:00+28з58680 0.0 1006181
22:00+28зюз34670 0.0 100662
10 мая, пн
пн1001:00+27ю33660 0.0 100549
04:00+26ю55610 0.0 100597
07:00+27ююз56570 0.0 1007177
10:00+30з67560 0.0 1007451
13:00+29зсз67640 0.0 1006489
16:00+29з69670 0.0 1005434
19:00+28зюз56730 0.0 1005162
22:00+28юз34700 0.0 100667
11 мая, вт
вт1101:00+27ю45640 0.0 1005104
04:00+26ю55570 0.0 1004124
07:00+27ююз45500 0.0 1006159
10:00+30зюз44540 0.0 1007269
13:00+31з55510 0.0 1006344
16:00+31з55570 0.0 1005293
19:00+29зюз33670 0.0 100530
22:00+28зюз33650 0.0 100519